Weather History for Lakehurst NAS, NJ

Change the Weather History Date:

Friday, November 9, 2012

  Actual Average Record
Temperature  
Mean Temperature 40 °F -  
Max Temperature 28 °F 53 °F 64 °F (1999)
Min Temperature 30 °F 38 °F 30 °F (2012)
Degree Days  
Heating Degree Days 25    
Moisture  
Dew Point 27 °F    
Average Humidity 67    
Maximum Humidity 96    
Minimum Humidity 36    
Precipitation  
Precipitation 0.00 in - - ()
Sea Level Pressure  
Sea Level Pressure 30.08 in    
Wind  
Wind Speed 7 mph (WNW)    
Max Wind Speed 16 mph    
Max Gust Speed 21 mph    
Averages and records for this station are not official NWS values.
T = Trace of Precipitation, MM = Missing Value Source: NWS Daily Summary

Daily Weather History Graph

Daily Weather History Graph

Search for Another Location

Airport:

Trip Planner

Search our weather history database for the weather conditions in past years. The results will help you decide how hot, cold, wet, or windy it might be!

Date:

Astronomy

Nov. 09, 2012 Rise Set
Actual Time 6:36 AM EST 4:45 PM EST
Civil Twilight 6:07 AM EST 5:14 PM EST
Nautical Twilight 5:35 AM EST 5:46 PM EST
Astronomical Twilight 5:03 AM EST 6:18 PM EST
Moon 1:32 AM EST (11/9) 1:57 PM EST (11/9)
Length of Visible Light 11h 06m
Length of Day
10h 09m
Waning Crescent, 23% of the Moon is Illuminated
Nov 9
Waning Crescent
Nov 13
New
Nov 20
First Quarter
Nov 28
Full
Dec 6
Last Quarter

Hourly Weather History & Observations

Time (EST) Temp. Windchill Dew Point Humidity Pressure Visibility Wind Dir Wind Speed Gust Speed Precip Events Conditions
12:00 AM 37.0 °F 30.4 °F 25.0 °F 62% 29.94 in - NW 9.2 mph 17.3 mph N/A   Clear
1:00 AM 36.0 °F 33.3 °F 25.0 °F 64% 29.95 in - Variable 3.5 mph - N/A   Clear
2:00 AM 34.0 °F 28.8 °F 25.0 °F 70% 29.96 in - NW 5.8 mph - N/A   Clear
3:00 AM 33.1 °F 26.9 °F 25.0 °F 72% 29.97 in - WNW 6.9 mph - N/A   Clear
4:00 AM 32.0 °F 24.8 °F 25.0 °F 75% 29.99 in - WNW 8.1 mph - N/A   Clear
5:00 AM 33.1 °F 27.7 °F 24.1 °F 70% 30.00 in - WNW 5.8 mph - N/A   Clear
7:00 AM 32.0 °F 23.6 °F 25.0 °F 75% 30.05 in - WNW 10.4 mph - N/A   Clear
8:00 AM 36.0 °F 29.0 °F 25.0 °F 64% 30.08 in - WNW 9.2 mph - N/A   Clear
9:00 AM 39.9 °F 32.9 °F 26.1 °F 58% 30.08 in - WNW 11.5 mph 20.7 mph N/A   Clear
12:00 PM 46.0 °F 40.2 °F 26.1 °F 46% 30.09 in - WNW 12.7 mph - N/A   Clear
1:00 PM 48.0 °F - 25.0 °F 41% 30.08 in - WNW 16.1 mph 20.7 mph N/A   Clear
2:00 PM 50.0 °F - 24.1 °F 36% 30.06 in - NW 12.7 mph 17.3 mph N/A   Clear
3:00 PM 50.0 °F - 26.1 °F 39% 30.08 in - WNW 11.5 mph - N/A   Clear
5:00 PM 43.0 °F 41.3 °F 30.9 °F 62% 30.11 in - West 3.5 mph - N/A   Clear
6:00 PM 39.9 °F 37.8 °F 30.9 °F 70% 30.14 in - WNW 3.5 mph - N/A   Clear
7:00 PM 39.0 °F 36.8 °F 30.0 °F 70% 30.16 in - West 3.5 mph - N/A   Clear
8:00 PM 33.1 °F - 28.9 °F 85% 30.19 in - Calm Calm - N/A   Clear
9:00 PM 33.1 °F - 30.0 °F 89% 30.19 in - Calm Calm - N/A   Clear
10:00 PM 30.9 °F - 28.0 °F 89% 30.20 in - Calm Calm - N/A   Clear
11:00 PM 30.0 °F - 28.9 °F 96% 30.21 in - Calm Calm - N/A   Clear